Regional Weather Roundup
Issued by NWS

Home | Current Version | Previous Version | Graphics & Text | Print | Product List | Glossary On
Versions: 1 2 3 4 5 6 7 8 9 10 11 12 13 14 15 16 17 18 19 20 21 22 23 24 25 26 27 28 29 30 31 32 33 34 35 36 37 38 39 40 41 42 43 44 45 46 47 48 49 50
000
ASUS45 KPSR 211500
RWRAZ

PRELIMINARY ARIZONA REGIONAL HOURLY WEATHER ROUNDUP
NATIONAL WEATHER SERVICE PHOENIX AZ
800 AM MST SUN DEC 21 2014

NOTE: FAIR INDICATES FEW OR NO CLOUDS BELOW 12,000 FEET WITH NO
SIGNIFICANT WEATHER AND/OR OBSTRUCTIONS TO VISIBILITY.

AZZ001>003-036-211600-
NORTHWEST ARIZONA

CITY           SKY/WX    TMP DP  RH WIND       PRES   REMARKS
KINGMAN        MOSUNNY   35  32  88 SE3       30.13S
$$

AZZ004>008-015-016-018-211600-
NORTH CENTRAL ARIZONA

CITY           SKY/WX    TMP DP  RH WIND       PRES   REMARKS
GRAND CANYON   MOSUNNY   22  20  92 CALM      30.15S
PRESCOTT       PTSUNNY   32  24  72 CALM      30.16R
FLAGSTAFF      NOT AVBL
PAYSON         PTSUNNY   32  28  86 CALM      30.13R
PAGE           CLOUDY    34  28  79 CALM      30.09S
$$

AZZ009>014-017-211600-
NORTHEAST ARIZONA

CITY           SKY/WX    TMP DP  RH WIND       PRES   REMARKS
WINSLOW        FOG       28  25  88 SE3       30.12R VSB 1/2
SAINT JOHNS    MOSUNNY   29  23  78 S8        30.07F WCI  21
WINDOW ROCK    CLOUDY    29  23  78 CALM      30.07F
SHOW LOW       MOSUNNY   28  23  80 S3        30.12S HAZE
$$

AZZ023-211600-
GREATER PHOENIX AREA

CITY           SKY/WX    TMP DP  RH WIND       PRES   REMARKS
PHOENIX        PTSUNNY   47  41  80 E7        30.08S
GLENDALE       PTSUNNY   43  43 100 CALM      30.12R
LUKE AFB       MOSUNNY   43 N/A N/A N8        30.11R
DEER VALLEY    MOSUNNY   43  39  86 N7        30.10R
SCOTTSDALE     MOSUNNY   43  39  86 CALM      30.11R
MESA-FALCON    PTSUNNY   45  39  81 NE6       30.09S
MESA-GATEWAY   MOSUNNY   43  39  87 E7        30.12R
CHANDLER       PTSUNNY   43  41  93 CALM      30.11R
$$

AZZ027-028-211600-
SOUTHWEST MARICOPA COUNTY AND PINAL COUNTY

CITY           SKY/WX    TMP DP  RH WIND       PRES   REMARKS
CASA GRANDE    MOSUNNY   41  37  87 MISG      30.10R
GILA BEND      FAIR      43  39  86 S5        30.11R
$$

AZZ503-504-507>509-211600-
SOUTHEAST ARIZONA

CITY           SKY/WX    TMP DP  RH WIND       PRES   REMARKS
TUCSON         MOSUNNY   41  34  76 SE10      30.12F
DAVIS-MONTHAN  MOSUNNY   41  34  77 SE7       30.09F
RYAN FIELD       N/A     41  41 100 E6        30.12F
NOGALES        PTSUNNY   36  28  73 NE3       30.13R
SIERRA VISTA   MOSUNNY   40  30  67 S8        30.13F WCI  34
SAFFORD        PTSUNNY   34  32  92 E6        30.10S WCI  29
$$

AZZ020-021-025-026-031-211600-
SOUTHWEST ARIZONA

CITY           SKY/WX    TMP DP  RH WIND       PRES   REMARKS
YUMA           MOSUNNY  N/A N/A N/A NE6       30.12R
$$

CAZ031-033-041-043-047-048-061-211600-
SOUTHERN CALIFORNIA

CITY           SKY/WX    TMP DP  RH WIND       PRES   REMARKS
DOWNTOWN L.A.  SUNNY     50  46  86 CALM      30.13R FOG
L.A. AIRPORT   MOSUNNY   52  47  83 E3        30.13S
SAN DIEGO      PTSUNNY   56  48  74 VRB3      30.15R
BURBANK        MOSUNNY   48  44  86 CALM      30.13R
ONTARIO        PTSUNNY   45  42  89 SE3       30.14R FOG
RIVERSIDE      SUNNY     45  43  93 CALM      30.15R FOG
PALM SPRINGS   SUNNY     49  44  83 N8        30.13S
EL CENTRO NAS  SUNNY     45  40  82 CALM      30.12R
IMPERIAL       SUNNY     46  41  82 CALM      30.12R
BLYTHE         SUNNY     46  41  82 CALM      30.12R
$$

NVZ020-UTZ003-211600-
SOUTHERN NEVADA-UTAH

CITY           SKY/WX    TMP DP  RH WIND       PRES   REMARKS
LAS VEGAS      CLOUDY    45  36  70 S8        30.10S
SALT LAKE CITY LGT RAIN  39  36  89 SE9       29.98S WCI  33
$$

NMZ009-TXZ055-211600-
NEW MEXICO-WEST TEXAS

CITY           SKY/WX    TMP DP  RH WIND       PRES   REMARKS
ALBUQUERQUE    PTSUNNY   30  24  78 CALM      30.05R
EL PASO        MOSUNNY   40  29  64 SE7       30.07R
$$


........................KEY........................
SKY/WX - SKY CONDITION/WEATHER
TMP    - TEMPERATURE IN FAHRENHEIT
DP     - DEW POINT IN FAHRENHEIT
RH     - RELATIVE HUMIDITY IN PERCENT
WIND   - DIRECTION AND SPEED IN MILES PER HOUR (MPH)
VRB    - VARIABLE WIND DIRECTION
PRES   - MEAN SEA LEVEL PRESSURE IN INCHES OF MERCURY
         F - FALLING PRESSURE   R - RISING PRESSURE
         S - STEADY PRESSURE
VSB    - VISIBILITY IN MILES
HX     - HEAT INDEX IN FAHRENHEIT
WCI    - WIND CHILL INDEX IN FAHRENHEIT
TC     - TEMPERATURE IN CELSIUS WHICH IS ALSO KNOWN AS
         TEMPERATURE IN CENTIGRADE
AFB    - AIR FORCE BASE
         LUKE AFB IS LUKE AIR FORCE BASE
         DAVIS-MONTHAN IS DAVIS-MONTHAN AIR FORCE BASE
NAS    - NAVAL AIR STATION
         EL CENTRO NAS IS EL CENTRO NAVAL AIR STATION
N/A    - NOT AVAILABLE



USA.gov is the U.S. government's official web portal to all federal, state and local government web resources and services.